Regional Weather Roundup
Issued by NWS

Home | Current Version | Previous Version | Text Only | Print | Product List | Glossary Off
Versions: 1 2 3 4 5 6 7 8 9 10 11 12 13 14 15 16 17 18 19 20 21 22 23 24 25 26 27 28 29 30 31 32 33 34 35 36 37 38 39 40 41 42 43 44 45 46 47 48 49 50

000
ASUS43 KFSD 010102
RWRSD

WEATHER ROUNDUP FOR SOUTH DAKOTA
NATIONAL WEATHER SERVICE SIOUX FALLS SD
700 PM CST SAT JAN 31 2015

NOTE: "FAIR" INDICATES FEW OR NO CLOUDS BELOW 12,000 FEET WITH NO
SIGNIFICANT WEATHER AND/OR OBSTRUCTIONS TO VISIBILITY.


SDZ001>005-009-010-012>017-010200-
NORTHWEST AND NORTH CENTRAL SOUTH DAKOTA

CITY           SKY/WX    TMP DP  RH WIND       PRES   REMARKS
BUFFALO          N/A     15  12  88 NE16      30.05R WCI  -1
FAITH            N/A     14   9  80 NE16      30.12R WCI  -2
MOBRIDGE       CLOUDY    14   0  53 NE15      30.20R WCI  -1
$$

SDZ012>016-024>037-041>051-057-063-072>074-010200-
SOUTHWEST AND SOUTH CENTRAL SOUTH DAKOTA

CITY           SKY/WX    TMP DP  RH WIND       PRES   REMARKS
RAPID CTY ARPT FOG       20  18  92 E10       30.04R VSB<1/4 WCI   9
PIERRE         CLOUDY    16   5  62 NE20      30.14R WCI  -1
CUSTER         CLOUDY    20  18  92 NE5       29.87R WCI  13
ELLSWORTH AFB  FRZ DRZL  19  18  93 E8        30.03  VSB 1/4 WCI   9
PHILIP         FLURRIES  17  13  84 NE14      30.11R WCI   3
PINE RIDGE     FLURRIES  21  17  84 NE16      29.98R WCI   7
WINNER         LGT SNOW  21  17  84 NE17      30.06R VSB 3/4 WCI   7
$$

SDZ004>011-016>023-039-040-010200-
NORTHEAST SOUTH DAKOTA

CITY           SKY/WX    TMP DP  RH WIND       PRES   REMARKS
ABERDEEN       CLOUDY    11  -1  58 NE24G30   30.24R WCI  -9
WATERTOWN      CLOUDY    15   6  67 NE21G28   30.12R WCI  -2
SISSETON         N/A     11   1  64 N24       30.25R WCI  -9
$$

SDZ017-020-022-023-036>040-048>070-010200-
SOUTHEAST SOUTH DAKOTA

CITY           SKY/WX    TMP DP  RH WIND       PRES   REMARKS
SIOUX FALLS    LGT SNOW  25  23  92 NE18      30.05S VSB 3/4 WCI  11
HURON          CLOUDY    20  14  77 NE18      30.15R WCI   5
MITCHELL       FRZ RAIN  24  22  91 NE14      30.10R FOG     WCI  12
YANKTON        CLOUDY    27  25  93 NE14      30.02S WCI  15
$$

ABBREVIATIONS USED IN REMARKS
   TC - TEMPERATURE IN CELSIUS
  WCI - WIND CHILL INDEX
   HX - HEAT INDEX
  VSB - VISIBILITY



USA.gov is the U.S. government's official web portal to all federal, state and local government web resources and services.